TimeCST,TemperatureF,Dew PointF,Humidity,Sea Level PressureIn,VisibilityMPH,Wind Direction,Wind SpeedMPH,Gust SpeedMPH,PrecipitationIn,Events,Conditions,WindDirDegrees,DateUTC
12:53 AM,35.1,26.1,70,30.08,10.0,WNW,4.6,-,N/A,,Clear,300,2012-11-26 06:53:00
1:53 AM,30.9,25.0,79,30.10,10.0,West,3.5,-,N/A,,Clear,270,2012-11-26 07:53:00
2:53 AM,30.9,25.0,79,30.12,10.0,WNW,4.6,-,N/A,,Clear,290,2012-11-26 08:53:00
3:53 AM,30.0,24.1,79,30.13,10.0,WNW,5.8,-,N/A,,Clear,290,2012-11-26 09:53:00
4:53 AM,30.0,23.0,75,30.15,10.0,WNW,4.6,-,N/A,,Clear,290,2012-11-26 10:53:00
5:53 AM,28.9,24.1,82,30.18,10.0,WNW,5.8,-,N/A,,Clear,290,2012-11-26 11:53:00
6:53 AM,30.9,26.1,82,30.19,10.0,NW,4.6,-,N/A,,Partly Cloudy,310,2012-11-26 12:53:00
7:53 AM,32.0,25.0,75,30.22,10.0,WNW,3.5,-,N/A,,Partly Cloudy,300,2012-11-26 13:53:00
8:53 AM,35.1,26.1,70,30.22,10.0,West,5.8,-,N/A,,Clear,280,2012-11-26 14:53:00
9:53 AM,37.9,27.0,65,30.24,10.0,WNW,9.2,-,N/A,,Mostly Cloudy,300,2012-11-26 15:53:00
10:30 AM,37.4,24.8,60,30.22,10.0,North,4.6,-,N/A,,Overcast,350,2012-11-26 16:30:00
10:53 AM,37.0,24.1,59,30.24,10.0,North,6.9,-,N/A,,Overcast,360,2012-11-26 16:53:00
11:53 AM,37.0,24.1,59,30.23,10.0,NW,6.9,-,N/A,,Mostly Cloudy,320,2012-11-26 17:53:00
12:53 PM,37.9,23.0,55,30.24,10.0,North,9.2,-,N/A,,Mostly Cloudy,350,2012-11-26 18:53:00
1:53 PM,36.0,24.1,62,30.25,10.0,North,6.9,-,N/A,,Mostly Cloudy,350,2012-11-26 19:53:00
2:53 PM,35.1,23.0,61,30.26,10.0,North,6.9,-,N/A,,Overcast,350,2012-11-26 20:53:00
3:53 PM,34.0,21.0,59,30.27,10.0,North,8.1,-,N/A,,Mostly Cloudy,350,2012-11-26 21:53:00
4:53 PM,33.1,21.9,64,30.27,10.0,North,3.5,-,N/A,,Mostly Cloudy,360,2012-11-26 22:53:00
5:53 PM,34.0,21.9,61,30.30,10.0,Calm,Calm,-,N/A,,Overcast,0,2012-11-26 23:53:00
6:53 PM,34.0,23.0,64,30.31,10.0,NNW,4.6,-,N/A,,Overcast,340,2012-11-27 00:53:00
7:53 PM,34.0,21.9,61,30.32,10.0,NW,5.8,-,N/A,,Overcast,320,2012-11-27 01:53:00
8:53 PM,34.0,23.0,64,30.33,10.0,NW,4.6,-,N/A,,Overcast,310,2012-11-27 02:53:00
9:53 PM,34.0,23.0,64,30.34,10.0,NW,3.5,-,N/A,,Overcast,310,2012-11-27 03:53:00
10:22 PM,33.8,24.8,70,30.32,10.0,NNW,6.9,-,N/A,,Overcast,340,2012-11-27 04:22:00
10:40 PM,33.8,23.0,65,30.32,10.0,Variable,5.8,-,N/A,,Overcast,0,2012-11-27 04:40:00
10:53 PM,34.0,21.9,61,30.35,10.0,NNW,8.1,-,N/A,,Overcast,330,2012-11-27 04:53:00
11:53 PM,33.1,21.9,64,30.35,10.0,NW,9.2,-,N/A,,Overcast,310,2012-11-27 05:53:00